Location: Devore Heights
(34.2372°N, 117.4156°W)
Time: 01:24:50
(UTC+00:00)

Altair - Pass Details

Date: 14 September 2024
Orbit: 1501 x 1682 km, 47.2° (Epoch: 09 October)

Event Time Altitude Azimuth Distance (km) Brightness Sun altitude
Exits shadow 08:06:57 12° 79° (ENE) 3,749 9.6 -52.2°
Drops below altitude 10° 08:07:43 10° 76° (ENE) 3,924 9.7 -52.2°
Sets 08:11:38 0° 64° (ENE) 4,928 10.5 -52.1°
